www.pogodaiklimat.ru
Время
и дата
05:53 29.11
06:53 29.11
07:53 29.11
08:53 29.11
09:28 29.11
09:53 29.11
10:53 29.11
11:53 29.11
12:15 29.11
12:36 29.11
12:53 29.11
13:53 29.11
14:27 29.11
14:53 29.11
15:13 29.11
15:35 29.11
15:53 29.11
16:15 29.11
16:53 29.11
17:53 29.11
18:09 29.11
18:46 29.11
18:53 29.11
19:53 29.11
20:11 29.11
20:39 29.11
20:49 29.11
20:50 29.11
20:53 29.11
21:14 29.11
21:21 29.11
21:50 29.11
21:53 29.11
22:22 29.11
22:36 29.11
22:53 29.11
23:08 29.11
23:30 29.11
23:53 29.11
00:35 30.11
00:53 30.11
01:18 30.11
01:33 30.11
01:53 30.11
02:10 30.11
02:53 30.11
03:06 30.11
03:53 30.11
Ветер
(напр.,м/с)
Видим. Явления Облачность Т
(С)
Тd
(С)
f
(%)
Тe
(С)
Тes
(С)
Комфортность P
(гПа)
Po
(гПа)
Тmin
(С)
Tmax
(С)
R
(мм)
R24
(мм)
S
(см)
штиль 0 16 км 10/0 7500 м
[Ci]
+11.1 +6.1 71 +11 +11 1017.6 994.4 +8.3 +11.1
С 1 16 км 10/0 3600 м
[Ac]
+10.6 +6.7 77 +9 +9 1018.3 995.0
СВ 1 16 км 10/2 1800 м
[Ac]
+11.7 +6.7 71 +11 +11 1018.7 995.4
нст 1 16 км 10/5 1800 м
[Ac]
+12.2 +7.8 74 +11 +12 1018.5 995.0
СВ 1 16 км 10/8 330 м
[Ac]
+12.2 +8.3 77 +11 +12 994.7
штиль 0 16 км 10/10 300 м +12.8 +8.9 77 +12 +12 1018.0 994.7
В 1 16 км 10/10 330 м +13.3 +10.0 80 +13 +13 1017.0 993.7
В 1 16 км слабый дождь 10/10 270 м +13.3 +10.6 84 +12 +12 1014.8 991.7 +10.6 +13.3
В 1 16 км слабый дождь 10/10 300 м +13.3 +11.1 87 +12 +12 991.1
ЮВ 1 14 км слабый дождь 10/10 270 м +13.3 +11.1 87 +13 +13 991.4
В 1 10 км слабый дождь, дымка 10/10 270 м +13.3 +11.1 87 +13 +13 1014.2 991.1
В 1 6 км дождь, дымка 10/10 240 м +12.8 +11.7 93 +12 +12 1013.7 990.4
В 1 5 км дождь, дымка 10/10 1440 м +13.3 +11.7 90 +13 +13 990.1
В 1 6 км дождь, дымка 10/8 300 м
[Ac]
+13.3 +11.7 90 +13 +13 1013.2 990.1 7.1
СВ 1 5 км дождь, дымка 10/8 240 м
[Ac]
+13.3 +11.7 90 +12 +12 989.1
СВ 1 6 км слабый дождь, дымка 10/8 210 м
[Ac]
+13.3 +12.2 93 +13 +13 989.4
штиль 0 11 км слабый дождь 10/10 210 м +13.3 +11.7 90 +13 +13 1012.4 989.1
В 1 6 км дождь, дымка 10/5 210 м
[Ac]
+13.3 +11.7 90 +12 +12 988.1
В 2
{4}
11 км слабый дождь 10/0 2550 м
[Ac]
+13.9 +12.2 89 +12 +12 1010.0 986.8
В 2 16 км 10/2 240 м
[Ac]
+13.9 +12.2 89 +12 +12 1008.6 985.5 +12.8 +13.9 14.7
ЮВ 2
{4}
16 км 10/8 300 м
[Ac]
+14.4 +12.2 87 +13 +13 985.8
В 2
{4}
16 км 10/10 270 м +14.4 +12.8 90 +13 +13 984.8
ЮВ 2 16 км 10/10 270 м +14.4 +12.8 90 +13 +13 1007.9 984.8
В 1 10 км слабый дождь, дымка 10/10 240 м +14.4 +12.8 90 +14 +14 1007.1 984.1
В 1 16 км 10/10 240 м +14.4 +12.8 90 +13 +13 984.1
В 2 10 км дымка 10/10 360 м +14.4 +12.8 90 +13 +13 983.8
нст 1 6 км дымка 10/10 420 м +14.0 +13.0 94 +13 +13 983.5
нст 1 6 км дымка 10/10 300 м +14.0 +13.0 94 +13 +13 983.5
ЮВ 1 6 км дымка 10/10 300 м +14.4 +12.8 90 +13 +13 1006.2 983.1 0.3
штиль 0 6 км слабый дождь, дымка 10/10 240 м +14.4 +13.3 93 +14 +14 982.8
нст 1 6 км слабый дождь, дымка 10/10 240 м +14.4 +12.8 90 +14 +14 982.8
З 2 3 км дождь, дымка 10/10 180 м +14.0 +13.0 94 +12 +12 982.8
СЗ 2 3 км слабый дождь, дымка 10/10 180 м +13.9 +12.8 93 +12 +12 1005.7 982.8
З 2 3 км дождь, дымка 10/10 120 м +13.9 +12.8 93 +12 +12 983.5
СЗ 5
{7}
5 км дождь, дымка 10/10 180 м +11.7 +10.0 89 +7 +7 984.1
СЗ 4
{8}
10 км слабый дождь, дымка 10/10 90 м +9.4 +7.2 86 +5 +5 1008.2 985.1
СЗ 3
{8}
10 км слабый дождь, дымка 10/10 240 м +8.3 +6.1 86 +4 +4 985.1
СЗ 3
{5}
6 км слабый дождь, дымка 10/10 240 м +8.3 +6.7 90 +4 +4 985.8
СЗ 3
{5}
6 км слабый дождь, дымка 10/10 210 м +8.3 +6.7 90 +4 +4 1009.4 986.4 +8.3 +14.4 4.6
СЗ 3
{4}
11 км слабый дождь 10/10 270 м +7.8 +6.1 89 +3 +3 986.1
С 3 16 км 10/5 390 м
[Ac]
+7.8 +6.1 89 +3 +3 1008.6 985.5
СЗ 2 16 км 10/8 390 м
[Ac]
+7.8 +6.1 89 +4 +4 986.4
З 2 16 км 10/10 270 м +7.8 +6.1 89 +4 +4 987.1
СЗ 3
{5}
16 км 10/10 270 м +7.8 +5.6 86 +3 +3 1010.6 987.4
З 3
{5}
16 км 10/10 330 м +7.8 +5.6 86 +3 +3 987.8
СЗ 3
{5}
8 км дымка 10/10 360 м +6.7 +5.0 89 +2 +2 1011.4 988.1 0.8
СЗ 3
{5}
16 км 10/10 330 м +7.2 +4.4 82 +3 +3 988.1
СЗ 3
{6}
16 км 10/10 540 м +6.7 +3.3 79 +2 +2 1012.0 988.8
Местоположение метеостанции Birmingham International Airport: широта 33.5656 долгота -86.7450 высота над уровнем моря 196 м.
В архиве по умолчанию представлена погода в Бирмингеме за последние 1-2 суток. Обновление информации о фактической погоде в базе происходит ежечасно! Архивные данные за месяц целиком и за предыдущие месяцы Вы можете получить, выбрав интересующий диапазон дат из раскрывающегося списка и нажав кнопку "Ввод!".
Внимание! Архив погоды МЕТАР в базе сайта по станциям, не включенным в климатический монитор, хранится не более 60 дней. Нет смысла пытаться выбрать более раннюю дату.
*Определитесь, кто Вы:
Внимание! Время в таблицах - местное (без учета летнего времени). Для получения всемирного времени необходимо вычесть поправку, которая равна -6 ч.
Смотрите также архив погоды в соседних городах и на ближайших метеорологических станциях:
Партнеры нашего сайта:      
Пояснения к столбцам:
  • Ветер - указаны скорость ветра в м/с - средняя за 10 мин, порывы в срок и между сроками (в фигурных скобках) и направление, откуда дует ветер: С - северный,
  • СВ - северо-восточный, В - восточный, ЮВ - юго-восточный, Ю - южный, ЮЗ - юго-западный, З - западный, СЗ - северо-западный.
  • Видимость - горизонтальная дальность видимости в метрах или километрах. При видимости от 1 до 10 км при отсутствии осадков обычно наблюдается дымка, при ухудшении видимости до 1 км и менее - туман. В сухую погоду видимость может ухудшаться дымом, пылью или мглою.
  • Явления - указаны атмосферные явления, наблюдавшиеся в срок или в последний час перед сроком; фигурными скобками обозначены явления, наблюдавшиеся между сроками (за 1-3 часа до срока); квадратными скобками обозначены град или гололедные отложения с указанием их диаметра в мм.
  • Облачность - указаны через наклонную черту общая и нижняя облачность в баллах и высота нижней границы облаков в метрах; квадратными скобками обозначены формы облаков: Ci - перистые, Cs - перисто-слоистые, Cc - перисто-кучевые, Ac - высококучевые, As - высокослоистые, Sc - слоисто-кучевые, Ns - слоисто-дождевые, Cu - кучевые, Cb - кучево-дождевые. Подробнее классификацию облаков см. в Атласе облаков (PDF).
  • T - Температура воздуха - температура, измеренная на высоте 2 м над землей.
  • Td - Температура точки росы - температура, при понижении до которой содержащийся в воздухе водяной пар достигнет насыщения.
  • f - Относительная влажность воздуха - влажноcть воздуха, измеренная на высоте 2 м над землей.
  • Te - Эффективная температура - температура, которую ощущает одетый по сезону человек в тени. Характеристика душности погоды. При расчете учитывается влияние влажности воздуха и скорости ветра на теплоощущения человека.
  • Tes - Эффективная температура на солнце - температура, которую ощущает человек, с поправкой на солнечный нагрев. Характеристика знойности погоды. Зависит от высоты солнца над горизонтом, облачности и скорости ветра. Ночью, в пасмурную погоду, а также при ветре 12 м/с и более поправка равна нулю.
  • P - Атмосферное давление - приведенное к уровню моря атмосферное давление.
  • Po - Атмосферное давление - измеренное на уровне метеостанции атмосферное давление.
  • Tmin - Минимальная температура - минимум температуры воздуха на высоте 2 м над землей.
  • Tmax - Максимальная температура - максимум температуры воздуха на высоте 2 м над землей.
  • R - Количество осадков - Количество выпавших осадков за период времени, мм. При наведении курсора мыши на число - период времени, за который выпало указанное количество осадков.
  • R24 - Количество осадков - Количество выпавших осадков за 24 часа, мм.
  • S - Снежный покров - Высота снежного покрова, см. При наведении курсора мыши на число - состояние снежного покрова и степень покрытия местности в баллах.